11h32 EDT


 

Suivi/Infos de l'aéroport


-ou-


 

Suivi des vols en temps réelHistory ✈ Flexjet #437

Flight Activity History (LXJ437)

JOURNAL DE L'ACTIVITE
Vous voulez une recherche complète sur l'historique de LXJ437 depuis 1998? Achetez maintenant. Recevez-le dans l'heure.
Date Avion Provenance Destination Départ Arrivée Durée
26-08-2014 LJ45/LWilliam P Hobby ()Santa Fe Muni () 15h02 CDT 15h44 MDT 1:42
25-08-2014 LJ45/LSanta Fe Muni ()William P Hobby () 10h40 MDT 13h22 CDT 1:42
25-08-2014 LJ45/LAddison ()Santa Fe Muni () 09h02 CDT 09h20 MDT 1:18
24-08-2014 LJ45/LSouthwest Florida Intl ()Addison () 14h10 EDT 15h17 CDT 2:07
24-08-2014 LJ45/LPorter County Rgnl ()Southwest Florida Intl () 10h14 CDT 13h40 EDT 2:26
24-08-2014 LJ45/LProvidence ()Porter County Rgnl () 07h43 EDT 08h33 CDT 1:50
23-08-2014 LJ45/LHancock County-Bar Harbor ()Providence () 14h33 EDT 15h11 EDT 0:38
23-08-2014 LJ45/LOakland County Intl ()Hancock County-Bar Harbor () 10h02 EDT 11h40 EDT 1:38
22-08-2014 LJ45/LInt'l d'Indianapolis ()Oakland County Intl () 16h16 EDT 17h02 EDT 0:46
22-08-2014 LJ45/LDekalb-Peachtree ()Int'l d'Indianapolis () 14h03 EDT 15h08 EDT 1:05
22-08-2014 LJ45/LTeterboro ()Dekalb-Peachtree () 10h43 EDT 12h26 EDT 1:43
21-08-2014 LJ45/LSan Antonio Intl ()Teterboro () 16h27 CDT 21h01 EDT 3:33
20-08-2014 LJ45/LSugar Land Rgnl ()San Antonio Intl () 22h54 CDT 23h26 CDT 0:32
20-08-2014 LJ45/LInt'l Austin-Bergstrom ()Sugar Land Rgnl () 13h45 CDT 14h17 CDT 0:32
20-08-2014 LJ45/LWilliam P Hobby ()Int'l Austin-Bergstrom () 12h40 CDT 13h08 CDT 0:28
20-08-2014 LJ45/LInt'l Austin-Bergstrom ()William P Hobby () 10h07 CDT 10h41 CDT 0:34
20-08-2014 LJ45/LSugar Land Rgnl ()Int'l Austin-Bergstrom () 07h25 CDT 07h56 CDT 0:31
19-08-2014 LJ45/LAddison ()Sugar Land Rgnl () 17h18 CDT 18h02 CDT 0:43
19-08-2014 LJ45/LArlington Muni ()Addison () 08h45 CDT 08h56 CDT 0:10
19-08-2014 LJ45/LSugar Land Rgnl ()Arlington Muni () 07h38 CDT 08h17 CDT 0:38
18-08-2014 LJ45/LSheppard Afb ()Sugar Land Rgnl () 14h23 CDT 15h19 CDT 0:56
18-08-2014 LJ45/LSierra Blanca Rgnl ()Sheppard Afb () 11h23 MDT 13h18 CDT 0:54
18-08-2014 LJ45/LAddison ()Sierra Blanca Rgnl () 09h59 CDT 10h10 MDT 1:11
17-08-2014 LJ45/LSpirit of St Louis ()Addison () 17h01 CDT 18h23 CDT 1:22
17-08-2014 LJ45/LKnox County Rgnl ()Spirit of St Louis () 14h33 EDT 16h14 CDT 2:41
17-08-2014 LJ45/LTeterboro ()Knox County Rgnl () 11h31 EDT 12h19 EDT 0:48
16-08-2014 LJ45/LMorristown Muni ()Teterboro () 16h18 EDT 16h26 EDT 0:08
16-08-2014 LJ45/LCharleston Afb/Intl ()Morristown Muni () 14h10 EDT 15h34 EDT 1:24
16-08-2014 LJ45/LMorristown Muni ()Charleston Afb/Intl () 08h17 EDT 09h45 EDT 1:28
15-08-2014 LJ45/LMartha's Vineyard ()Morristown Muni () 19h30 EDT 20h26 EDT 0:56
15-08-2014 LJ45/LMartha's Vineyard ()Teterboro () 19h30 EDT Dérouté
15-08-2014 LJ45/LWestchester County ()Martha's Vineyard () 18h02 EDT 18h34 EDT 0:32
15-08-2014 LJ45/LAtlantic City Intl ()Westchester County () 14h53 EDT 15h40 EDT 0:47
15-08-2014 LJ45/LPittsfield Muni ()Atlantic City Intl () 12h45 EDT 13h33 EDT 0:47
14-08-2014 LJ45/LBarnstable Muni ()Pittsfield Muni () 18h03 EDT 18h34 EDT 0:31
14-08-2014 LJ45/LSalina Rgnl ()Barnstable Muni () 13h02 CDT 17h11 EDT 3:09
14-08-2014 LJ45/LBob Hope ()Salina Rgnl () 08h10 PDT 12h35 CDT 2:25
14-08-2014 LJ45/LMonterey Rgnl ()Bob Hope () 06h20 PDT 07h01 PDT 0:41
13-08-2014 LJ45/LJackson Hole ()Monterey Rgnl () 15h56 MDT 16h47 PDT 1:51
13-08-2014 LJ45/LInt'l de San José ()Jackson Hole () 12h00 PDT 14h32 MDT 1:32
1998 - 2014Vous voulez une recherche complète sur l'historique de LXJ437 depuis 1998? Achetez maintenant. Recevez-le dans l'heure.
Les membres inscrits (l'inscription est gratuite et facile!) voient 4 months d'historique. S'inscrire